When you browse on this site, cookies collect data to enhance your experience and personalize the content and advertising you see.
Visit our Privacy Policy to learn more. By continuing to use the site, you agree to this use of cookies and data.
  • In Hungary
  • List of Countries
  • For 7 days
  • Water Temperature
  • Weather Map
  • News
  • Weather Widgets
  • user-avatar
    Login

    Hourly Weather Titovo

    Today, 23 February, Sunday

    Time Temperature Precipitation Wind Pressure Humidity
    00:00 -5°C° 0 mm 4 mps 749 mmHg 95%
    01:00 -6°C° 0 mm 5 mps 748 mmHg 94%
    02:00 -6°C° 0 mm 5 mps 747 mmHg 94%
    03:00 -6°C° 0 mm 5 mps 747 mmHg 94%
    04:00 -6°C° 0 mm 6 mps 746 mmHg 94%
    05:00 -8°C° 0 mm 6 mps 745 mmHg 95%
    06:00 -8°C° 0 mm 6 mps 744 mmHg 95%
    07:00 -6°C° 0.1 mm 6 mps 743 mmHg 94%
    08:00 -7°C° 0.1 mm 7 mps 743 mmHg 93%
    09:00 -6°C° 0.1 mm 7 mps 742 mmHg 93%
    10:00 -6°C° 0 mm 7 mps 741 mmHg 93%
    11:00 -5°C° 0 mm 8 mps 740 mmHg 92%
    12:00 -5°C° 0 mm 8 mps 739 mmHg 92%
    13:00 -4°C° 0.1 mm 8 mps 738 mmHg 93%
    14:00 -4°C° 0.1 mm 8 mps 737 mmHg 93%
    15:00 -4°C° 0.1 mm 8 mps 736 mmHg 93%
    16:00 -4°C° 0.5 mm 8 mps 736 mmHg 94%
    17:00 -4°C° 0.5 mm 8 mps 735 mmHg 95%
    18:00 -4°C° 0.5 mm 8 mps 734 mmHg 96%
    19:00 -4°C° 0.4 mm 8 mps 733 mmHg 96%
    20:00 -4°C° 0.4 mm 8 mps 733 mmHg 96%
    21:00 -3°C° 0.4 mm 7 mps 733 mmHg 96%
    22:00 -3°C° 0.3 mm 7 mps 732 mmHg 96%
    23:00 -3°C° 0.3 mm 6 mps 732 mmHg 95%

    Tomorrow, 24 February, Monday

    Time Temperature Precipitation Wind Pressure Humidity
    00:00 -3°C° 0.3 mm 6 mps 731 mmHg 95%
    01:00 -3°C° 0.1 mm 6 mps 731 mmHg 95%
    02:00 -2°C° 0.1 mm 5 mps 731 mmHg 96%
    03:00 -2°C° 0.1 mm 5 mps 731 mmHg 97%
    04:00 -3°C° 0 mm 4 mps 731 mmHg 96%
    05:00 -3°C° 0 mm 4 mps 730 mmHg 96%
    06:00 -4°C° 0 mm 4 mps 730 mmHg 96%
    07:00 -4°C° 0 mm 4 mps 730 mmHg 95%
    08:00 -3°C° 0 mm 4 mps 731 mmHg 95%
    09:00 -3°C° 0 mm 4 mps 731 mmHg 94%
    10:00 -3°C° 0 mm 4 mps 731 mmHg 95%
    11:00 -3°C° 0 mm 4 mps 731 mmHg 97%
    12:00 -3°C° 0 mm 4 mps 731 mmHg 98%
    13:00 -3°C° 0 mm 4 mps 731 mmHg 97%
    14:00 -3°C° 0 mm 4 mps 731 mmHg 96%
    15:00 -2°C° 0 mm 4 mps 731 mmHg 95%
    16:00 -3°C° 0 mm 4 mps 730 mmHg 95%
    17:00 -2°C° 0 mm 3 mps 730 mmHg 95%
    18:00 -2°C° 0 mm 3 mps 730 mmHg 95%
    19:00 -2°C° 0.6 mm 3 mps 730 mmHg 96%
    20:00 -3°C° 0.6 mm 4 mps 729 mmHg 96%
    21:00 -4°C° 0.6 mm 5 mps 729 mmHg 97%
    22:00 -3°C° 0.9 mm 4 mps 728 mmHg 98%
    23:00 -2°C° 0.9 mm 4 mps 728 mmHg 98%

    Day after tomorrow, 25 February, Tuesday

    Time Temperature Precipitation Wind Pressure Humidity
    00:00 -1°C° 0.9 mm 3 mps 727 mmHg 98%
    01:00 -1°C° 1.1 mm 3 mps 727 mmHg 98%
    02:00 -1°C° 1.1 mm 2 mps 726 mmHg 99%
    03:00 +1°C° 1.1 mm 1 mps 726 mmHg 99%
    04:00 -1°C° 0.6 mm 2 mps 726 mmHg 98%
    05:00 -1°C° 0.6 mm 3 mps 726 mmHg 98%
    06:00 -2°C° 0.6 mm 5 mps 726 mmHg 98%
    07:00 -4°C° 0.5 mm 6 mps 726 mmHg 97%
    08:00 -4°C° 0.5 mm 7 mps 726 mmHg 96%
    09:00 -5°C° 0.5 mm 8 mps 727 mmHg 95%
    10:00 -5°C° 0.2 mm 8 mps 727 mmHg 94%
    11:00 -5°C° 0.2 mm 9 mps 728 mmHg 92%
    12:00 -5°C° 0.2 mm 9 mps 729 mmHg 91%
    13:00 -5°C° 0 mm 9 mps 729 mmHg 88%
    14:00 -5°C° 0 mm 8 mps 730 mmHg 85%
    15:00 -6°C° 0 mm 8 mps 731 mmHg 82%
    16:00 -7°C° 0 mm 7 mps 732 mmHg 82%
    17:00 -6°C° 0 mm 6 mps 732 mmHg 82%
    18:00 -7°C° 0 mm 5 mps 733 mmHg 82%
    19:00 -8°C° 0 mm 5 mps 734 mmHg 85%
    20:00 -10°C° 0 mm 5 mps 735 mmHg 87%
    21:00 -9°C° 0 mm 4 mps 735 mmHg 89%
    22:00 -10°C° 0 mm 4 mps 736 mmHg 90%
    23:00 -10°C° 0 mm 4 mps 736 mmHg 91%

    26 February, Wednesday

    Time Temperature Precipitation Wind Pressure Humidity
    00:00 -11°C° 0 mm 4 mps 736 mmHg 91%
    01:00 -11°C° 0 mm 4 mps 736 mmHg 92%
    02:00 -10°C° 0 mm 3 mps 736 mmHg 93%
    03:00 -12°C° 0 mm 3 mps 736 mmHg 93%
    04:00 -12°C° 0 mm 3 mps 736 mmHg 94%
    05:00 -12°C° 0 mm 3 mps 736 mmHg 94%
    06:00 -12°C° 0 mm 3 mps 736 mmHg 94%
    07:00 -10°C° 0 mm 3 mps 736 mmHg 94%
    08:00 -10°C° 0 mm 4 mps 736 mmHg 94%
    09:00 -9°C° 0 mm 4 mps 736 mmHg 94%
    10:00 -8°C° 0 mm 4 mps 736 mmHg 94%
    11:00 -6°C° 0 mm 5 mps 736 mmHg 95%
    12:00 -4°C° 0 mm 5 mps 736 mmHg 95%
    13:00 -4°C° 0 mm 5 mps 736 mmHg 96%
    14:00 -2°C° 0 mm 5 mps 736 mmHg 96%
    15:00 -2°C° 0 mm 5 mps 736 mmHg 97%
    16:00 -2°C° 0 mm 6 mps 735 mmHg 97%
    17:00 -2°C° 0 mm 6 mps 735 mmHg 98%
    18:00 -2°C° 0 mm 6 mps 735 mmHg 98%
    19:00 -2°C° 0 mm 6 mps 736 mmHg 98%
    20:00 -2°C° 0 mm 6 mps 736 mmHg 98%
    21:00 -2°C° 0 mm 6 mps 736 mmHg 98%
    22:00 -2°C° 0.2 mm 6 mps 736 mmHg 98%
    23:00 -2°C° 0.2 mm 6 mps 736 mmHg 98%

    27 February, Thursday

    Time Temperature Precipitation Wind Pressure Humidity
    00:00 -1°C° 0.2 mm 5 mps 736 mmHg 98%
    01:00 -1°C° 0.2 mm 5 mps 736 mmHg 98%
    02:00 -1°C° 0.2 mm 5 mps 736 mmHg 98%
    03:00 -1°C° 0.2 mm 5 mps 736 mmHg 98%
    04:00 -1°C° 0.1 mm 5 mps 736 mmHg 98%
    05:00 -2°C° 0.1 mm 4 mps 736 mmHg 97%
    06:00 -2°C° 0.1 mm 4 mps 736 mmHg 97%
    07:00 -2°C° 0.1 mm 4 mps 736 mmHg 96%
    08:00 -2°C° 0.1 mm 4 mps 736 mmHg 95%
    09:00 -2°C° 0.1 mm 4 mps 736 mmHg 94%
    10:00 -2°C° 0 mm 4 mps 736 mmHg 95%
    11:00 -2°C° 0 mm 4 mps 736 mmHg 95%
    12:00 -1°C° 0 mm 5 mps 736 mmHg 95%
    13:00 -1°C° 0 mm 5 mps 736 mmHg 95%
    14:00 -1°C° 0 mm 5 mps 736 mmHg 94%
    15:00 -2°C° 0 mm 6 mps 736 mmHg 93%
    16:00 -2°C° 0 mm 6 mps 735 mmHg 92%
    17:00 -1°C° 0 mm 5 mps 735 mmHg 90%
    18:00 -1°C° 0 mm 5 mps 735 mmHg 89%
    19:00 -1°C° 0 mm 5 mps 736 mmHg 89%
    20:00 -1°C° 0 mm 5 mps 736 mmHg 89%
    21:00 -1°C° 0 mm 5 mps 736 mmHg 89%
    22:00 -1°C° 0 mm 5 mps 736 mmHg 90%
    23:00 -1°C° 0 mm 5 mps 736 mmHg 91%

    28 February, Friday

    Time Temperature Precipitation Wind Pressure Humidity
    00:00 -1°C° 0 mm 5 mps 736 mmHg 91%
    01:00 -1°C° 0 mm 5 mps 736 mmHg 92%
    02:00 -1°C° 0 mm 4 mps 736 mmHg 93%
    03:00 -1°C° 0 mm 4 mps 736 mmHg 94%
    04:00 -1°C° 0 mm 4 mps 736 mmHg 94%
    05:00 -1°C° 0 mm 4 mps 736 mmHg 94%
    06:00 -1°C° 0 mm 4 mps 737 mmHg 94%
    07:00 -1°C° 0 mm 4 mps 737 mmHg 96%
    08:00 -1°C° 0 mm 4 mps 737 mmHg 98%
    09:00 -1°C° 0 mm 4 mps 737 mmHg 99%
    10:00 0°C° 0 mm 3 mps 738 mmHg 99%
    11:00 0°C° 0 mm 3 mps 738 mmHg 99%
    12:00 0°C° 0 mm 3 mps 738 mmHg 100%
    13:00 0°C° 0 mm 3 mps 738 mmHg 100%
    14:00 0°C° 0 mm 3 mps 738 mmHg 99%
    15:00 0°C° 0 mm 3 mps 738 mmHg 99%
    16:00 0°C° 0.1 mm 3 mps 738 mmHg 99%
    17:00 0°C° 0.1 mm 3 mps 739 mmHg 99%
    18:00 0°C° 0.1 mm 3 mps 739 mmHg 99%
    19:00 0°C° 0.2 mm 3 mps 739 mmHg 99%
    20:00 +1°C° 0.2 mm 2 mps 739 mmHg 99%
    21:00 +1°C° 0.2 mm 2 mps 739 mmHg 99%
    22:00 +1°C° 0 mm 2 mps 739 mmHg 99%
    23:00 +2°C° 0 mm 1 mps 739 mmHg 99%
    Show more